Location: Campestrin
(46.4667°N, 11.7167°E)
Time: 02:56:31
(UTC+00:00)

ALOS 2 - Pass Details

Date: 18 April 2021
Orbit: 630 x 632 km, 97.9° (Epoch: 16 May)

Event Time Altitude Azimuth Distance (km) Brightness Sun altitude
Exits shadow 22:49:46 30° 338° (NNW) 1,148 4.4 -32.1°
Drops below altitude 10° 22:52:01 10° 343° (NNW) 2,024 6.0 -32.2°
Sets 22:54:14 0° 346° (NNW) 2,936 7.1 -32.2°
